Location: Chisholm
(54.9102°N, 114.1701°W)
Time: 09:51:59
(UTC+00:00)

N. Korean satellite - Pass Details

Date: 09 December 2021
Orbit: 447 x 491 km, 97.3° (Epoch: 23 January)

Event Time Altitude Azimuth Distance (km) Brightness Sun altitude
Rises 11:49:24 0° 29° (NNE) 2,467 10.6 -32.8°
Reaches altitude 10° 11:52:19 10° 58° (ENE) 1,586 9.9 -32.3°
Maximum altitude 11:54:03 13° 88° (E) 1,391 9.7 -32.1°
Drops below altitude 10° 11:55:46 10° 119° (ESE) 1,579 9.8 -31.9°
Sets 11:58:40 0° 148° (SSE) 2,447 10.5 -31.4°
